Regional Weather Roundup
Issued by NWS

Home | Current Version | Previous Version | Graphics & Text | Print | Product List | Glossary On
Versions: 1 2 3 4 5 6 7 8 9 10 11 12 13 14 15 16 17 18 19 20 21 22 23 24 25 26 27 28 29 30 31 32 33 34 35 36 37 38 39 40 41 42 43 44 45 46 47 48 49 50
000
ASUS43 KMPX 101810
RWRMN
WEATHER ROUNDUP FOR MINNESOTA
NATIONAL WEATHER SERVICE TWIN CITIES/CHANHASSEN MN
100 PM CDT THU JUL 10 2014


NOTE: "FAIR" INDICATES FEW OR NO CLOUDS BELOW 12,000 FEET WITH NO
SIGNIFICANT WEATHER AND/OR OBSTRUCTIONS TO VISIBILITY. N/A MEANS
CURRENT SKY AND/OR WEATHER CONDITIONS ARE NOT AVAILABLE.

MNZ060>063-068>070-101900-
   Twin Cities Metro

CITY           SKY/WX    TMP DP  RH WIND       PRES   REMARKS
TWIN CITIES    MOSUNNY   82  63  52 S9        30.03F
6HR MIN TEMP:  63; 6HR MAX TEMP:  82;

ST PAUL        SUNNY     80  64  58 SE9       30.04F
CRYSTAL        SUNNY     82  60  47 SW7       30.01F
BLAINE           N/A     82  63  51 S9        30.04F
LAKEVILLE      MOSUNNY   81  63  54 S7        30.04F
EDEN PRAIRIE   MOSUNNY   82  63  52 S8        30.02F
6HR MIN TEMP:  63; 6HR MAX TEMP:  82;

SOUTH ST PAUL  SUNNY     80  62  55 SE7       30.03F
LAKE ELMO      FAIR      79  64  61 SE7       30.06F
$$
MNZ001>005-007-008-013>017-022>024-027-028-101900-
   Northwest Minnesota

CITY           SKY/WX    TMP DP  RH WIND       PRES   REMARKS
BEMIDJI        SUNNY     76  54  47 SE10      30.00S
HALLOCK        PTSUNNY   81  57  44 S16       29.88F
ROSEAU         SUNNY     77  61  57 S13       29.94F
WARROAD        SUNNY     75  59  57 S7        29.95F
THIEF RVR FALL   N/A     75  55  50 S13       29.94
CROOKSTON      MOSUNNY   79  57  47 S16       29.92F
FOSSTON        SUNNY     75  55  50 S10G20    29.97F
DETROIT LAKES  MOSUNNY   75  55  50 S8        29.98F
MOORHEAD       PTSUNNY   79  55  44 SE12G17   29.93F
PARK RAPIDS    SUNNY     77  55  46 S12       30.00F
$$
MNZ006-009>011-018-025>026-101900-
   North Central Minnesota

CITY           SKY/WX    TMP DP  RH WIND       PRES   REMARKS
BAUDETTE       SUNNY     76  57  51 S8        29.97F
FLAG ISLAND    SUNNY     70  59  68 SE12      29.94F
INTL FALLS     SUNNY     76  52  43 W8        29.99F
6HR MIN TEMP:  52; 6HR MAX TEMP:  76;

WASKISH        SUNNY     75  57  53 W7        29.99F
BIG FORK       SUNNY     75  54  46 S9        30.02S
LONGVILLE      SUNNY     77  57  50 S7        30.02S
GRAND RAPIDS   SUNNY     73  52  46 S10       30.03F
CRANE LAKE     MOSUNNY   73  52  46 SW7       30.03S
ORR            SUNNY     75  48  38 S9G17     29.99F
COOK           SUNNY     75  52  43 S9G16     30.02F
$$
MNZ012-019>021-037-101900-
   Northeast Minnesota

CITY           SKY/WX    TMP DP  RH WIND       PRES   REMARKS
DULUTH         MOSUNNY   76  58  53 S8        30.05F
6HR MIN TEMP:  59; 6HR MAX TEMP:  76;

ELY            MOSUNNY   75  52  43 S7        30.04S
HIBBING        MOSUNNY   78  50  37 SW6G16    30.02F
EVELETH        PTSUNNY   77  52  41 S13G18    30.04F
DULUTH HARBOR  SUNNY     63  55  77 E8        30.05F
TWO HARBORS    SUNNY     73  59  60 S9        30.04F
SILVER BAY     SUNNY     72  61  68 S10       30.05S
GRAND MARAIS     N/A     54  47  77 CALM      30.09S
G MARAIS ARPRT SUNNY     70  52  52 S10G16    30.10S
$$
MNZ029>031-032-039>041-046>048-054>057-064-101900-
   West Central Minnesota

CITY           SKY/WX    TMP DP  RH WIND       PRES   REMARKS
FERGUS FALLS   MOSUNNY   79  57  47 SE9       29.94F
WHEATON        MOSUNNY   79  59  50 SE9       29.93F
MORRIS         MOSUNNY   79  63  57 S13       29.94F
ALEXANDRIA     MOSUNNY   79  59  50 S9        30.00F
ELBOW LAKE     FAIR      79  61  53 S13       29.95F
WADENA         MOSUNNY   77  57  50 S12       29.99F
GLENWOOD       SUNNY     81  61  50 S9        30.00F
APPLETON       SUNNY     84  61  45 SE10G17   29.93F
BENSON         SUNNY     81  63  54 S14       29.96F
ORTONVILLE     MOSUNNY   81  61  50 S9        29.93F
MADISON        SUNNY     84  63  48 S14G23    29.94F
WILLMAR        FAIR      82  57  42 S7G16     29.99F
$$
MNZ033>034-036-042>043-049>051-058-059-101900-
   Central Minnesota

CITY           SKY/WX    TMP DP  RH WIND       PRES   REMARKS
ST CLOUD       SUNNY     82  59  45 SE6       30.01F
6HR MIN TEMP:  56; 6HR MAX TEMP:  83;

SAUK CENTRE    FAIR      80  60  51 S7        30.00F
PAYNESVILLE    SUNNY     77  61  56 E12       30.00F HAZE
AITKIN         SUNNY     79  55  44 S5        30.01F
PINE RIVER     SUNNY     77  59  53 S6        30.04F
BRAINERD       MOSUNNY   84  54  35 S13       30.02F
STAPLES        SUNNY     77  55  47 S7        30.00F
LONG PRAIRIE   FAIR      79  61  53 SE10      30.01F
LITTLE FALLS   SUNNY     81  54  39 S7G17     30.01F
LITCHFIELD     MOSUNNY   82  61  47 SE5       30.01F
BUFFALO        SUNNY     80  61  51 SE9       30.03F
MAPLE LAKE     SUNNY     82  65  57 S3        30.03F
$$
MNZ037-044-045-052-053-101900-
   East Central Minnesota

CITY           SKY/WX    TMP DP  RH WIND       PRES   REMARKS
PRINCETON      SUNNY     82  61  47 S7        30.03S
MORA           SUNNY     77  52  41 S8        30.05F
CAMBRIDGE      SUNNY     82  63  51 SE6       30.02F
RUSH CITY      SUNNY     78  58  49 S5        30.04F
MOOSE LAKE     MOSUNNY   79  55  44 S8        30.03S
HINCKLEY       FAIR      77  59  53 SW9       30.04F
CLOQUET        MOSUNNY   75  52  43 SW10      30.05S
MCGREGOR       SUNNY     77  54  44 S9        30.03F
$$
MNZ071>073-080-081-089-090-097-098-101900-
   Southwest Minnesota

CITY           SKY/WX    TMP DP  RH WIND       PRES   REMARKS
MONTEVIDEO     SUNNY     84  63  48 S12G18    29.96F
GRANITE FALLS  SUNNY     82  62  51 SE15G22   29.98F
CANBY          MOSUNNY   81  63  54 S10G17    29.96F
MARSHALL       SUNNY     82  61  47 S16G22    29.96F
REDWOOD FALLS  SUNNY     84  61  45 S16       29.98F
OLIVIA         MOSUNNY   81  61  50 S10       29.98F
PIPESTONE      MOSUNNY   79  61  53 S17       29.98F
WINDOM         SUNNY     81  61  50 S14G25    30.01F
WORTHINGTON    SUNNY     79  64  61 S16G26    30.02F
JACKSON        SUNNY     81  59  47 S17G24    30.03F
TRACY          SUNNY     82  61  49 S14G21    29.99F
SLAYTON        SUNNY     80  58  45 S13G24    30.01F
$$
MNZ065>067-074>077-082>085-091>093-101900-
   South Central Minnesota

CITY           SKY/WX    TMP DP  RH WIND       PRES   REMARKS
MANKATO        MOSUNNY   81  61  50 S12G21    30.04F
NEW ULM        SUNNY     81  63  54 S13       30.00F
ST JAMES       SUNNY     82  61  47 S14G23    30.02F
FAIRMONT       SUNNY     81  57  44 S18G25    30.04F
GLENCOE        SUNNY     84  59  42 S12       30.02F
FARIBAULT      MOSUNNY   84  55  37 S8G17     30.05F
OWATONNA       SUNNY     81  61  50 SW12G17   30.06F
WASECA         SUNNY     79  54  41 SW16G23   30.08S
ALBERT LEA     SUNNY     81  59  47 S10G17    30.08S
$$
MNZ078>079-086>088-094>096-101900-
   Southeast Minnesota

CITY           SKY/WX    TMP DP  RH WIND       PRES   REMARKS
ROCHESTER      PTSUNNY   76  62  62 SW12      30.10S
6HR MIN TEMP:  59; 6HR MAX TEMP:  78;

RED WING       MOSUNNY   81  63  54 SE7       30.05S
STANTON        MOSUNNY   82  63  53 SW7       30.04F
DODGE CENTER   MOSUNNY   81  63  54 SW14      30.08F
WINONA         MOSUNNY   79  63  57 SW6       30.08S
AUSTIN         SUNNY     79  61  53 S12       30.08F
PRESTON        PTSUNNY   76  62  62 SW8       30.12R
$$
ABBREVIATIONS USED IN REMARKS
   TC - TEMPERATURES IN CELSIUS
  WCI - WIND CHILL INDEX
   HX - HEAT INDEX
  VSB - VISIBILITY
$$



USA.gov is the U.S. government's official web portal to all federal, state and local government web resources and services.